AC1IX Weather Reports


time (UTC)temp
C
wind
direction
speed
KPH
gust
KPH
rain 1hr
cm
rain 24hr
cm
rain mn
cm
humidity
%
barometer
mb
20260510145910 15 308 1.6 1.6 0.00 0.00 0.00 81 1013.2
20260510145407 15 306 0.0 0.0 0.00 0.00 0.00 82 1012.9
20260510144904 15 311 1.6 1.6 0.00 0.00 0.00 82 1013.2
20260510144401 15 301 0.0 1.6 0.00 0.00 0.00 79 1013.0
20260510143900 15 302 1.6 1.6 0.00 0.00 0.00 80 1012.9
20260510143357 15 302 0.0 0.0 0.00 0.00 0.00 82 1012.7
20260510142854 15 293 0.0 0.0 0.00 0.00 0.00 79 1012.9
20260510142350 16 139 3.2 3.2 0.00 0.00 0.00 75 1012.8
20260510141847 17 290 0.0 0.0 0.00 0.00 0.00 76 1013.0
20260510141345 17 295 1.6 1.6 0.00 0.00 0.00 73 1013.0
20260510140842 16 293 1.6 1.6 0.00 0.00 0.00 75 1012.9
20260510140338 16 283 1.6 1.6 0.00 0.00 0.00 75 1013.0
20260510135837 16 267 0.0 1.6 0.00 0.00 0.00 78 1012.7
20260510135333 15 293 0.0 0.0 0.00 0.00 0.00 82 1012.5
20260510134831 15 293 1.6 1.6 0.00 0.00 0.00 81 1012.4
20260510134327 15 290 0.0 1.6 0.00 0.00 0.00 80 1012.3
20260510133823 15 272 1.6 1.6 0.00 0.00 0.00 79 1012.2
20260510133319 15 294 0.0 0.0 0.00 0.00 0.00 84 1012.3
20260510132815 15 294 0.0 0.0 0.00 0.00 0.00 86 1012.3
20260510132314 14 290 0.0 1.6 0.00 0.00 0.00 84 1012.4
20260510131810 13 292 0.0 1.6 0.00 0.00 0.00 85 1012.5
20260510131308 14 300 0.0 0.0 0.00 0.00 0.00 85 1012.5
20260510130804 14 300 3.2 3.2 0.00 0.00 0.00 84 1012.4
20260510130301 15 272 3.2 3.2 0.00 0.00 0.00 81 1012.5
20260510125757 15 297 0.0 0.0 0.00 0.00 0.00 84 1012.5
20260510125253 15 295 1.6 1.6 0.00 0.00 0.00 86 1012.5
20260510124750 14 284 0.0 0.0 0.00 0.00 0.00 84 1012.3
20260510124248 13 295 0.0 0.0 0.00 0.00 0.00 85 1012.5
20260510123743 13 297 0.0 0.0 0.00 0.00 0.00 90 1012.3
20260510123239 12 296 0.0 0.0 0.00 0.00 0.00 90 1012.4
20260510122736 12 298 1.6 1.6 0.00 0.00 0.00 93 1012.4
20260510122232 12 285 0.0 1.6 0.00 0.00 0.00 93 1012.4
20260510121728 12 292 0.0 0.0 0.00 0.00 0.00 94 1012.4
20260510121226 11 299 1.6 1.6 0.00 0.00 0.00 99 1012.3
20260510120723 10 300 1.6 1.6 0.00 0.00 0.00 99 1012.2
20260510120220 10 286 0.0 1.6 0.00 0.00 0.00 99 1012.5
20260510115715 10 300 0.0 1.6 0.00 0.00 0.00 99 1012.3
20260510115214 10 289 0.0 0.0 0.00 0.00 0.00 99 1012.3
20260510114708 10 289 0.0 0.0 0.00 0.00 0.00 99 1012.3
20260510114206 10 297 0.0 0.0 0.00 0.00 0.00 99 1012.4
20260510113700 10 291 0.0 0.0 0.00 0.00 0.00 99 1012.5
20260510113158 10 295 0.0 0.0 0.00 0.00 0.00 99 1012.5
20260510112655 10 295 0.0 0.0 0.00 0.00 0.00 99 1012.5
20260510112152 10 294 0.0 0.0 0.00 0.00 0.00 99 1012.6
20260510111647 9 296 0.0 0.0 0.00 0.00 0.00 99 1012.5
20260510111144 9 294 0.0 0.0 0.00 0.00 0.00 99 1012.4
20260510110639 8 297 0.0 0.0 0.00 0.00 0.00 99 1012.4
20260510110137 8 294 0.0 0.0 0.00 0.00 0.00 99 1012.3
20260510105633 8 294 0.0 0.0 0.00 0.00 0.00 99 1012.1
20260510105132 8 293 0.0 0.0 0.00 0.00 0.00 99 1012.1
20260510104629 8 293 0.0 0.0 0.00 0.00 0.00 99 1012.0
20260510104126 8 295 0.0 0.0 0.00 0.00 0.00 99 1011.8
20260510103623 8 297 0.0 0.0 0.00 0.00 0.00 99 1011.8
20260510103119 8 290 0.0 0.0 0.00 0.00 0.00 99 1011.7
20260510102614 7 293 0.0 0.0 0.00 0.00 0.00 99 1011.6
20260510102110 7 295 0.0 0.0 0.00 0.00 0.00 99 1011.6
20260510101608 8 294 0.0 0.0 0.00 0.00 0.00 99 1011.7
20260510101106 7 298 0.0 0.0 0.00 0.00 0.00 99 1011.6
20260510100602 7 295 0.0 0.0 0.00 0.00 0.00 99 1011.4
20260510100100 7 296 0.0 0.0 0.00 0.00 0.00 99 1011.5
20260510095555 7 293 0.0 0.0 0.00 0.00 0.00 99 1011.3
20260510095050 7 294 0.0 0.0 0.00 0.00 0.00 99 1011.2
20260510094549 7 292 0.0 0.0 0.00 0.00 0.00 99 1011.1
20260510094045 7 288 0.0 0.0 0.00 0.00 0.00 99 1011.1
20260510093542 7 293 0.0 0.0 0.00 0.00 0.00 99 1011.1
20260510093038 7 294 0.0 0.0 0.00 0.00 0.00 99 1010.7
20260510092536 7 293 0.0 0.0 0.00 0.00 0.00 99 1010.4
20260510092035 7 293 0.0 0.0 0.00 0.00 0.00 99 1010.7
20260510091532 7 292 0.0 0.0 0.00 0.00 0.00 99 1011.1
20260510091028 8 295 0.0 0.0 0.00 0.00 0.00 99 1011.1
20260510090525 8 292 0.0 0.0 0.00 0.00 0.00 99 1010.9
20260510090021 8 295 0.0 0.0 0.00 0.00 0.00 99 1011.2
20260510085521 8 292 0.0 0.0 0.00 0.00 0.00 99 1011.2
20260510085017 8 294 0.0 0.0 0.00 0.00 0.00 99 1010.9
20260510084514 8 294 0.0 0.0 0.00 0.00 0.00 99 1010.6
20260510084011 8 294 0.0 0.0 0.00 0.00 0.00 99 1010.7
20260510083508 8 293 0.0 0.0 0.00 0.00 0.00 99 1010.7
20260510083003 8 293 0.0 0.0 0.00 0.00 0.00 99 1010.5
20260510082501 8 295 0.0 0.0 0.00 0.00 0.00 99 1010.5
20260510082000 8 279 0.0 1.6 0.00 0.00 0.00 99 1010.4
20260510081456 8 294 0.0 0.0 0.00 0.00 0.00 99 1011.1
20260510080952 8 294 0.0 0.0 0.00 0.00 0.00 99 1010.9
20260510080451 9 292 0.0 0.0 0.00 0.00 0.00 99 1011.1
20260510075948 9 284 0.0 1.6 0.00 0.00 0.00 99 1011.6
20260510075446 9 293 0.0 0.0 0.00 0.00 0.00 99 1011.7
20260510074942 9 285 0.0 0.0 0.00 0.00 0.00 99 1011.8
20260510074440 9 295 0.0 0.0 0.00 0.00 0.00 99 1012.0
20260510073936 9 295 0.0 0.0 0.00 0.00 0.00 99 1011.8
20260510073431 9 284 0.0 1.6 0.00 0.00 0.00 99 1011.7
20260510072928 9 297 0.0 0.0 0.00 0.00 0.00 99 1011.7
20260510072425 9 296 0.0 0.0 0.00 0.00 0.00 99 1011.7
20260510071920 9 293 0.0 0.0 0.00 0.00 0.00 99 1011.7
20260510071417 9 292 0.0 0.0 0.00 0.00 0.00 99 1011.5
20260510070916 9 278 1.6 1.6 0.00 0.00 0.00 99 1011.5
20260510070412 9 295 0.0 0.0 0.00 0.00 0.00 99 1011.4
20260510065907 8 293 0.0 0.0 0.00 0.00 0.00 99 1011.2
20260510065404 8 296 0.0 0.0 0.00 0.00 0.00 99 1011.2
20260510064901 8 293 0.0 0.0 0.00 0.00 0.00 99 1011.0
20260510064359 8 293 0.0 0.0 0.00 0.00 0.00 99 1011.2
20260510063855 8 295 0.0 0.0 0.00 0.00 0.00 99 1011.2
20260510063351 8 291 0.0 0.0 0.00 0.00 0.00 99 1010.9
20260510062848 8 295 0.0 0.0 0.00 0.00 0.00 99 1010.9
20260510062343 8 296 0.0 0.0 0.00 0.00 0.00 99 1010.7
20260510061839 8 291 0.0 0.0 0.00 0.00 0.00 99 1010.7
20260510061336 8 294 0.0 0.0 0.00 0.00 0.00 99 1010.9
20260510060832 8 294 0.0 0.0 0.00 0.00 0.00 99 1011.0
20260510060330 8 292 0.0 0.0 0.00 0.00 0.00 99 1011.0
20260510055826 8 293 0.0 0.0 0.00 0.00 0.00 99 1011.2
20260510055325 8 295 0.0 0.0 0.00 0.00 0.00 99 1011.5
20260510054825 8 293 0.0 0.0 0.00 0.00 0.00 99 1011.1
20260510054320 8 292 0.0 0.0 0.00 0.00 0.00 99 1011.3
20260510053816 8 292 0.0 1.6 0.00 0.00 0.00 99 1011.3
20260510053311 8 293 0.0 0.0 0.00 0.00 0.00 99 1011.1
20260510052808 8 291 0.0 0.0 0.00 0.00 0.00 99 1011.2
20260510052306 8 286 0.0 1.6 0.00 0.00 0.00 99 1011.1
20260510051800 8 292 0.0 0.0 0.00 0.00 0.00 99 1011.1
20260510051257 8 294 0.0 0.0 0.00 0.00 0.00 99 1011.4
20260510050753 8 294 0.0 0.0 0.00 0.00 0.00 99 1011.2
20260510050250 8 249 1.6 1.6 0.00 0.00 0.00 99 1011.3
20260510045748 8 293 0.0 0.0 0.00 0.00 0.00 99 1011.5
20260510045244 8 294 0.0 0.0 0.00 0.00 0.00 99 1011.5
20260510044741 8 293 0.0 0.0 0.00 0.00 0.00 99 1011.3
20260510044239 8 293 0.0 0.0 0.00 0.00 0.00 99 1011.5
20260510043733 8 288 0.0 0.0 0.00 0.00 0.00 99 1011.3
20260510043231 8 296 0.0 0.0 0.00 0.00 0.00 99 1011.4
20260510042728 8 293 0.0 0.0 0.00 0.00 0.00 99 1011.2
20260510042223 8 332 1.6 3.2 0.00 0.00 0.00 99 1011.3
20260510041721 8 293 0.0 0.0 0.00 0.00 0.00 99 1011.2
20260510041218 8 295 0.0 0.0 0.00 0.00 0.00 99 1011.2
20260510040715 8 295 0.0 0.0 0.00 0.00 0.00 99 1011.1
20260510040212 8 295 0.0 1.6 0.00 0.00 0.00 99 1011.4
20260510035707 8 291 0.0 0.0 0.00 1.42 1.42 99 1011.2
20260510035203 8 280 1.6 1.6 0.00 1.42 1.42 99 1011.2
20260510034659 8 292 0.0 0.0 0.00 1.42 1.42 99 1011.1
20260510034156 9 301 0.0 1.6 0.00 1.42 1.42 99 1011.1
20260510033653 9 297 0.0 0.0 0.00 1.42 1.42 99 1011.0
20260510033151 9 268 1.6 1.6 0.00 1.42 1.42 99 1011.3
20260510032647 9 290 0.0 0.0 0.00 1.42 1.42 99 1011.5
20260510032142 9 292 0.0 0.0 0.00 1.42 1.42 99 1011.5
20260510031638 8 293 0.0 0.0 0.00 1.42 1.42 99 1011.6
20260510031135 8 293 0.0 0.0 0.00 1.42 1.42 99 1011.5
20260510030634 8 294 0.0 0.0 0.00 1.42 1.42 99 1011.6
20260510030132 8 291 0.0 0.0 0.00 1.42 1.42 99 1011.5
20260510025629 8 288 0.0 0.0 0.00 1.42 1.42 99 1011.5
20260510025126 8 292 0.0 0.0 0.00 1.42 1.42 99 1011.3
20260510024623 8 293 0.0 0.0 0.00 1.42 1.42 99 1011.4
20260510024120 8 295 0.0 0.0 0.00 1.42 1.42 99 1011.4
20260510023616 8 292 0.0 0.0 0.00 1.42 1.42 99 1011.6
20260510023114 8 293 0.0 1.6 0.00 1.42 1.42 99 1011.5
20260510022613 8 293 0.0 0.0 0.00 1.42 1.42 99 1011.4
20260510022108 8 294 0.0 0.0 0.00 1.42 1.42 99 1011.5
20260510021604 8 293 0.0 0.0 0.00 1.42 1.42 99 1011.3
20260510021103 8 296 3.2 3.2 0.00 1.42 1.42 99 1011.3
20260510020601 8 291 0.0 0.0 0.00 1.42 1.42 99 1011.1
20260510020057 8 292 0.0 0.0 0.00 1.42 1.42 99 1011.4
20260510015554 9 296 0.0 0.0 0.00 1.42 1.42 99 1011.5
20260510015050 9 294 0.0 0.0 0.00 1.42 1.42 99 1011.5
20260510014546 9 295 0.0 0.0 0.00 1.42 1.42 99 1011.5
20260510014044 9 298 0.0 1.6 0.00 1.42 1.42 99 1012.0
20260510013538 9 298 0.0 1.6 0.00 1.42 1.42 99 1011.8
20260510013035 9 280 0.0 1.6 0.00 1.42 1.42 99 1011.6
20260510012533 9 299 0.0 0.0 0.00 1.42 1.42 99 1011.6
20260510012031 9 293 0.0 0.0 0.00 1.42 1.42 99 1011.7
20260510011530 9 294 0.0 0.0 0.00 1.42 1.42 99 1011.5
20260510011026 9 294 0.0 0.0 0.00 1.42 1.42 99 1011.4
20260510010523 9 293 0.0 0.0 0.00 1.42 1.42 99 1011.6
20260510010020 9 294 0.0 0.0 0.00 1.42 1.42 99 1011.6
20260510005515 9 292 0.0 0.0 0.00 1.42 1.42 98 1011.5
20260510005013 10 290 1.6 1.6 0.00 1.42 1.42 98 1011.3
20260510004511 9 330 4.8 4.8 0.00 1.42 1.42 99 1011.1
20260510004009 10 301 0.0 0.0 0.00 1.42 1.42 98 1011.1
20260510003505 10 296 0.0 0.0 0.00 1.42 1.42 97 1011.0
20260510003000 10 281 0.0 1.6 0.00 1.42 1.42 97 1010.7
20260510002456 10 294 0.0 0.0 0.00 1.42 1.42 97 1010.5
20260510001953 10 293 0.0 0.0 0.00 1.42 1.42 97 1010.7
20260510001450 10 297 0.0 0.0 0.00 1.42 1.42 97 1010.6
20260510000948 10 288 0.0 0.0 0.00 1.42 1.42 96 1010.6
20260510000444 10 292 0.0 0.0 0.00 1.42 1.42 97 1010.5
20260509235940 10 287 4.8 4.8 0.00 1.42 1.42 97 1010.5
20260509235437 10 298 0.0 0.0 0.00 1.42 1.42 99 1010.4
20260509234933 10 282 0.0 1.6 0.00 1.42 1.42 98 1010.2
20260509234430 10 285 1.6 1.6 0.00 1.42 1.42 98 1010.3
20260509233929 10 281 1.6 3.2 0.00 1.42 1.42 97 1010.3
20260509233426 10 295 0.0 0.0 0.00 1.42 1.42 98 1010.2
20260509232922 10 288 0.0 1.6 0.00 1.42 1.42 98 1010.1
20260509232420 10 294 0.0 0.0 0.00 1.42 1.42 99 1010.0
20260509231915 10 284 1.6 1.6 0.00 1.42 1.42 99 1010.2
20260509231412 10 281 3.2 4.8 0.00 1.42 1.42 99 1010.3
20260509230910 10 292 0.0 0.0 0.00 1.42 1.42 99 1010.0
20260509230407 10 316 1.6 1.6 0.00 1.42 1.42 99 1010.2
20260509225902 10 292 0.0 0.0 0.00 1.42 1.42 99 1010.3
20260509225359 10 300 0.0 0.0 0.00 1.42 1.42 99 1010.2
20260509224855 10 295 0.0 0.0 0.00 1.42 1.42 99 1010.1
20260509224351 10 291 0.0 0.0 0.00 1.42 1.42 99 1010.2
20260509223849 10 297 0.0 0.0 0.00 1.42 1.42 99 1010.5
20260509223345 10 295 0.0 0.0 0.00 1.42 1.42 99 1010.1
20260509222842 10 292 0.0 0.0 0.00 1.42 1.42 99 1010.2
20260509222337 10 294 0.0 1.6 0.00 1.42 1.42 99 1010.2
20260509221833 10 295 0.0 0.0 0.00 1.42 1.42 99 1010.4
20260509221331 10 295 0.0 0.0 0.00 1.42 1.42 99 1010.2
20260509220831 10 296 0.0 0.0 0.00 1.42 1.42 99 1010.5
20260509220327 10 292 0.0 0.0 0.00 1.42 1.42 99 1010.3
20260509215823 10 308 0.0 0.0 0.00 1.42 1.42 99 1010.5
20260509215320 10 289 0.0 0.0 0.00 1.42 1.42 99 1010.6
20260509214817 10 292 0.0 0.0 0.00 1.42 1.42 99 1010.5
20260509214314 10 292 0.0 0.0 0.00 1.42 1.42 99 1010.4
20260509213811 10 292 0.0 0.0 0.00 1.42 1.42 99 1010.5
20260509213306 10 300 0.0 0.0 0.00 1.42 1.42 99 1010.5
20260509212804 10 289 1.6 1.6 0.00 1.42 1.42 99 1010.6
20260509212305 10 248 1.6 1.6 0.00 1.42 1.42 99 1010.7
20260509211756 10 298 0.0 0.0 0.00 1.42 1.42 99 1011.0
20260509211253 10 286 0.0 0.0 0.00 1.42 1.42 99 1010.9
20260509210750 10 295 0.0 0.0 0.00 1.42 1.42 99 1010.9
20260509210248 10 287 1.6 1.6 0.00 1.42 1.42 99 1010.9
20260509205747 10 301 0.0 0.0 0.00 1.42 1.42 99 1011.2
20260509205242 10 298 0.0 0.0 0.00 1.42 1.42 99 1011.0
20260509204738 9 307 0.0 0.0 0.00 1.42 1.42 99 1011.4
20260509204235 9 296 0.0 0.0 0.00 1.42 1.42 99 1011.1
20260509203730 9 289 0.0 1.6 0.00 1.42 1.42 99 1011.3
20260509203229 9 289 0.0 0.0 0.00 1.42 1.42 99 1011.3
20260509202724 9 298 0.0 0.0 0.00 1.42 1.42 99 1011.5
20260509202220 9 288 1.6 1.6 0.00 1.42 1.42 99 1011.5
20260509201715 9 284 1.6 1.6 0.00 1.42 1.42 99 1011.5
20260509201212 9 288 1.6 1.6 0.00 1.42 1.42 99 1011.6
20260509200708 9 289 0.0 0.0 0.00 1.42 1.42 99 1011.5
20260509200203 9 291 3.2 3.2 0.00 1.42 1.42 99 1011.7
20260509195659 9 291 0.0 0.0 0.13 1.42 1.42 99 1011.4
20260509195155 9 286 0.0 0.0 0.13 1.42 1.42 99 1011.6
20260509194655 9 294 0.0 0.0 0.00 1.40 1.40 99 1011.4
20260509194152 9 297 0.0 0.0 0.18 1.40 1.40 99 1011.7
20260509193648 8 297 0.0 0.0 0.18 1.40 1.40 99 1011.7
20260509193143 8 298 0.0 0.0 0.13 1.37 1.37 99 1011.7
20260509192640 8 294 0.0 0.0 0.30 1.37 1.37 99 1011.9
20260509192135 8 297 0.0 0.0 0.30 1.35 1.35 99 1011.6
20260509191635 8 284 0.0 0.0 0.13 1.32 1.32 99 1011.7
20260509191132 8 308 1.6 1.6 0.18 1.30 1.30 99 1011.6
20260509190629 8 288 0.0 0.0 0.36 1.30 1.30 99 1011.7
20260509190126 8 297 0.0 0.0 0.30 1.27 1.27 99 1011.7
20260509185624 8 300 0.0 0.0 0.13 1.24 1.24 99 1011.7
20260509185119 8 299 0.0 0.0 0.18 1.22 1.22 99 1011.7
20260509184618 8 296 0.0 0.0 0.30 1.22 1.22 99 1012.0
20260509184114 8 297 0.0 0.0 0.30 1.19 1.19 99 1011.9
20260509183610 8 301 0.0 0.0 0.30 1.17 1.17 99 1012.0
20260509183106 8 294 0.0 0.0 0.43 1.14 1.14 99 1012.0
20260509182602 8 298 1.6 1.6 0.30 1.12 1.12 99 1012.1
20260509182059 8 296 0.0 0.0 0.18 1.07 1.07 99 1012.2
20260509181558 8 290 0.0 1.6 0.30 1.07 1.07 99 1012.1
20260509181054 8 292 0.0 0.0 0.13 1.04 1.04 99 1012.0
20260509180550 8 288 0.0 0.0 0.18 1.02 1.02 99 1012.2
20260509180048 8 295 0.0 0.0 0.36 1.02 1.02 99 1012.2
20260509175543 8 294 0.0 0.0 0.30 0.99 0.99 99 1012.3
20260509175040 8 298 0.0 0.0 0.13 0.97 0.97 99 1012.3
20260509174536 8 297 0.0 0.0 0.18 0.94 0.94 99 1012.3
20260509174032 8 294 0.0 0.0 0.18 0.94 0.94 99 1012.4
20260509173526 8 293 0.0 0.0 0.13 0.91 0.91 99 1012.5
20260509173023 8 295 0.0 0.0 0.30 0.91 0.91 99 1012.2
20260509172520 8 298 0.0 0.0 0.18 0.89 0.89 99 1012.5
20260509172016 8 293 0.0 0.0 0.13 0.86 0.86 99 1012.4
20260509171512 8 293 0.0 0.0 0.13 0.86 0.86 99 1012.5
20260509171009 8 294 0.0 0.0 0.18 0.84 0.84 99 1012.6
20260509170504 8 296 0.0 0.0 0.13 0.81 0.81 99 1012.6
20260509170000 7 295 0.0 0.0 0.13 0.81 0.81 99 1012.7
20260509165459 7 296 0.0 0.0 0.18 0.79 0.79 99 1012.6
20260509164955 7 294 0.0 0.0 0.18 0.79 0.79 99 1012.8
20260509164451 8 293 0.0 0.0 0.13 0.76 0.76 99 1012.8
20260509163947 8 295 0.0 0.0 0.13 0.76 0.76 99 1012.9
20260509163445 7 293 0.0 0.0 0.18 0.74 0.74 99 1012.8
20260509162943 7 291 1.6 1.6 0.18 0.74 0.74 99 1012.9
20260509162443 7 296 0.0 0.0 0.13 0.71 0.71 99 1012.8
20260509161938 7 293 0.0 1.6 0.13 0.71 0.71 99 1012.6
20260509161435 7 293 0.0 0.0 0.18 0.69 0.69 99 1012.8
20260509160930 7 293 0.0 0.0 0.18 0.69 0.69 99 1012.9
20260509160426 7 304 0.0 1.6 0.18 0.66 0.66 99 1012.9
20260509155921 7 286 0.0 1.6 0.18 0.66 0.66 99 1013.1
20260509155418 7 293 0.0 0.0 0.13 0.64 0.64 99 1013.1
20260509154915 7 297 0.0 0.0 0.30 0.64 0.64 99 1013.2
20260509154411 7 297 0.0 0.0 0.18 0.61 0.61 99 1013.2
20260509153908 6 314 3.2 4.8 0.13 0.58 0.58 99 1013.7
20260509153405 6 294 1.6 1.6 0.30 0.58 0.58 99 1013.7
20260509152902 6 296 0.0 1.6 0.18 0.56 0.56 99 1013.6
20260509152358 6 305 1.6 1.6 0.13 0.53 0.53 99 1013.6
20260509151855 6 296 0.0 0.0 0.30 0.53 0.53 99 1013.7
20260509151351 6 303 1.6 1.6 0.30 0.51 0.51 99 1013.7
20260509150850 6 294 0.0 0.0 0.30 0.48 0.48 99 1013.8
20260509150347 6 299 0.0 0.0 0.30 0.46 0.46 99 1013.6